Location: Ashtead
(51.3000°N, 0.3000°W)
Time: 16:32:35
(UTC+00:00)

CZ-2C R/B - Pass Details

Date: 02 May 2025
Orbit: 781 x 868 km, 98.4° (Epoch: 12 May)

Event Time Altitude Azimuth Distance (km) Brightness Sun altitude
Exits shadow 01:07:37 44° 173° (S) 1,109 2.9 -21.6°
Maximum altitude 01:09:21 82° 255° (WSW) 824 2.5 -21.5°
Drops below altitude 10° 01:14:38 10° 344° (NNW) 2,382 5.8 -21.2°
Sets 01:16:57 0° 345° (NNW) 3,306 6.7 -21.1°
